Theta_e
304 305 306 305 306 306 305 305 305 305 305 304 305 305 306 305 305 306 306 306 305 305 307 309 308 308 305 303 302 301 302 302 304 304 316 315 310 313 311 310 315 325 326 328 328 328 328
305 305 305 305 305 304 305 305 305 304 305 304 304 304 304 304 302 301 300 300 303 305 309 309 308 307 305 304 303 305 306 306 306 305 303 312 313 311 310 309 313 313 314 317 320 322 320
304 305 304 304 304 304 304 304 304 304 303 304 303 303 300 300 303 303 303 302 306 306 308 309 309 308 306 305 305 308 308 308 307 306 303 303 308 312 309 311 310 312 312 312 312 313 316
303 303 304 304 303 303 302 302 302 303 303 304 304 301 299 299 300 303 304 305 306 306 308 307 309 307 306 306 308 308 308 308 307 307 305 303 303 305 308 309 311 314 313 314 315 312 315
303 303 303 303 303 302 302 303 303 303 303 304 304 302 300 299 301 303 305 307 306 306 308 308 308 307 308 307 308 306 306 307 306 306 305 304 304 304 307 308 310 311 315 314 315 314 315
302 303 303 303 302 302 302 302 302 303 303 303 304 302 299 299 301 304 307 306 305 306 309 309 310 307 304 305 306 306 306 306 306 305 304 304 303 304 303 308 313 314 314 317 317 315 315
302 302 302 302 302 302 301 301 302 303 303 304 303 302 299 300 302 305 307 306 303 303 304 305 304 305 304 305 306 307 307 306 305 306 306 304 303 304 307 308 309 309 312 313 314 315 314
296 297 298 300 300 299 299 299 301 302 304 303 302 302 301 300 303 306 307 305 305 305 304 304 304 304 305 305 308 306 306 305 306 306 304 303 305 305 307 307 307 307 308 310 311 312 313
293 294 294 295 296 297 298 298 299 301 302 303 301 303 302 301 304 306 306 306 306 305 303 304 304 306 306 305 306 306 305 305 306 306 305 304 305 306 307 307 308 308 309 310 311 312 312
292 293 293 293 293 294 295 296 298 299 300 302 301 304 304 302 304 305 306 306 307 305 301 304 306 306 306 305 307 308 307 306 306 305 304 303 303 304 305 306 306 306 308 310 312 313 314
293 293 293 294 294 295 295 294 296 295 297 301 302 304 302 302 304 305 307 307 306 301 301 306 307 306 306 305 306 309 309 306 306 307 305 303 304 304 304 304 305 306 308 308 308 308 309
292 293 293 294 294 296 297 296 296 294 295 301 303 303 303 304 305 307 307 307 304 302 301 307 306 306 306 305 305 308 308 309 309 308 305 305 304 304 304 304 304 306 307 308 309 308 311
293 293 293 293 295 296 297 297 295 294 295 301 303 305 303 304 305 307 308 301 301 301 304 307 307 307 306 305 305 308 307 310 312 313 312 307 305 305 306 305 305 305 304 308 310 311 310
301 300 299 300 300 299 297 298 297 295 294 300 305 307 304 306 308 308 304 300 304 305 307 307 307 306 305 304 305 307 306 311 311 312 313 315 310 309 310 305 305 305 304 306 313 312 310
305 305 305 306 305 305 301 299 299 296 294 300 306 308 307 308 308 307 299 301 302 305 308 307 307 307 306 305 306 305 305 309 310 310 313 314 314 311 310 310 308 307 305 305 305 306 307
306 306 306 306 306 306 305 300 300 299 297 301 305 306 308 308 307 304 301 307 305 306 307 307 308 307 307 305 306 305 306 308 310 310 308 309 310 310 310 309 310 307 306 305 302 307 312
305 305 305 306 306 306 305 305 303 300 300 302 304 304 307 308 307 300 301 304 305 306 307 308 308 309 307 307 306 307 307 308 310 309 307 308 309 309 309 308 306 309 308 307 303 305 312
305 305 304 305 305 305 304 305 305 302 298 303 301 305 305 306 302 296 300 305 306 307 308 309 308 307 307 307 307 307 308 308 309 308 309 309 309 311 310 307 307 308 308 307 308 308 306
305 305 305 304 304 304 304 304 304 304 299 303 303 302 306 304 298 297 301 305 306 308 308 310 309 308 306 307 309 308 308 308 307 308 309 308 308 311 308 310 309 310 309 308 310 310 312
305 305 305 303 304 304 303 303 303 304 301 303 303 302 299 297 298 303 305 308 307 307 308 308 308 307 308 310 308 310 308 308 308 308 310 309 306 307 306 307 309 310 310 311 313 311 309
305 305 305 304 304 303 303 302 303 303 302 304 297 301 302 300 300 301 304 307 308 309 309 307 308 308 311 312 310 310 308 307 308 308 309 308 311 308 309 310 310 309 310 310 311 312 315
305 305 305 305 304 302 302 302 303 303 303 301 296 298 298 298 299 303 305 307 308 308 307 307 308 308 309 311 310 310 310 310 311 309 309 306 312 310 310 309 310 311 311 311 311 312 312
305 304 305 305 304 302 301 301 302 303 303 298 299 298 298 299 299 301 302 306 306 306 308 307 308 309 309 309 308 308 307 308 308 311 309 311 309 309 309 309 311 310 311 310 310 311 311
304 304 304 304 303 302 301 301 301 303 304 302 299 299 301 301 299 301 302 302 303 305 307 307 306 308 308 306 304 305 306 307 308 308 310 313 312 310 307 309 308 307 312 317 315 312 311
304 303 303 302 301 300 300 300 301 302 303 303 301 300 301 304 300 301 303 305 303 304 307 307 306 306 302 302 307 309 309 314 314 307 310 310 312 311 309 307 310 310 314 317 318 314 311
303 303 301 299 298 299 299 300 300 302 302 303 303 301 300 302 301 301 301 300 301 306 307 307 304 303 301 300 302 310 314 315 316 315 307 310 311 311 312 312 313 319 315 313 316 318 322
302 301 298 298 296 299 299 300 300 300 302 303 303 301 300 302 301 299 303 301 302 304 306 308 307 304 301 302 305 307 309 312 317 317 316 314 313 312 312 313 312 314 312 310 321 318 322
301 297 297 297 296 298 299 299 300 300 301 302 304 303 301 301 301 302 300 300 300 303 306 305 306 302 303 306 308 308 309 311 314 313 313 314 313 315 315 314 314 309 309 316 318 319 321
297 297 297 298 297 297 298 298 299 301 301 301 302 303 302 300 301 302 302 302 301 301 303 306 308 306 307 307 305 309 310 311 313 315 309 313 309 312 312 313 308 304 304 306 307 309 321
Wind_Speed
18 20 20 20 21 21 22 22 23 23 23 23 24 24 25 26 26 27 26 25 24 23 21 19 16 12 7 4 10 19 17 21 17 14 3 5 9 7 6 5 4 13 6 8 10 6 6
18 18 19 19 20 21 22 23 23 24 25 25 26 26 27 28 30 29 26 23 23 26 22 16 10 3 1 5 7 20 27 29 26 16 9 4 5 5 6 6 16 2 5 11 6 7 4
17 17 17 18 19 20 21 21 22 23 23 24 25 26 27 28 29 27 25 21 23 25 20 10 2 2 6 15 17 25 25 22 26 18 5 10 8 6 2 4 7 3 5 3 6 4 8
17 17 18 19 19 20 20 20 20 20 21 22 24 26 26 28 28 25 23 21 20 21 14 10 5 4 7 18 16 20 13 15 18 21 20 22 15 4 7 5 4 5 5 12 14 11 6
17 18 18 18 19 20 21 21 22 22 23 23 24 26 26 28 27 26 24 22 19 20 8 9 4 3 11 16 9 19 14 9 22 16 9 13 6 7 4 5 4 4 14 6 4 9 7
17 18 19 19 20 21 22 22 23 24 24 25 26 26 26 28 25 24 21 22 20 8 7 4 1 1 8 10 17 18 16 14 2 6 3 5 5 4 3 7 16 6 3 2 4 7 15
17 18 19 19 20 21 23 24 24 24 24 25 25 25 24 24 21 19 18 10 8 5 5 5 11 7 20 15 26 8 16 3 3 1 3 4 4 13 14 9 3 4 3 3 3 1 4
20 20 20 20 21 22 24 26 26 25 25 25 24 25 26 22 20 8 10 3 4 5 9 11 14 10 22 13 6 6 4 3 5 4 4 5 14 5 1 7 9 7 0 3 5 8 4
21 21 21 22 23 24 24 26 28 27 26 26 26 26 25 19 11 2 9 2 6 12 2 8 6 5 9 2 5 6 4 5 1 2 5 6 7 6 5 3 4 4 4 3 6 7 13
22 22 22 23 25 25 26 27 28 29 29 27 28 25 22 17 1 9 4 4 18 1 3 5 5 3 8 7 4 2 4 4 1 6 4 5 7 4 4 6 9 7 4 2 2 1 5
22 23 24 25 26 27 29 29 29 33 34 32 30 26 19 9 8 4 6 14 12 4 4 12 5 4 17 4 11 1 8 0 7 13 3 7 2 4 5 6 6 7 9 9 8 7 4
22 23 24 26 28 30 32 32 31 35 37 37 33 26 15 3 5 9 12 17 3 5 4 7 7 15 12 6 10 4 4 3 5 6 6 11 3 3 5 5 9 5 5 4 2 3 4
22 23 24 25 27 30 33 34 33 37 39 38 32 14 6 5 3 12 17 3 4 4 4 7 9 16 14 6 8 5 11 5 2 3 4 4 14 10 6 5 4 5 5 2 1 2 8
22 23 24 26 28 30 32 35 35 38 40 38 22 6 1 5 9 14 6 5 5 2 5 6 10 15 4 8 6 6 9 3 4 3 2 3 2 5 3 8 7 6 7 4 6 5 5
23 24 25 26 28 31 32 35 37 38 40 37 16 5 2 5 6 9 5 5 5 4 4 7 12 3 4 6 3 6 3 3 3 4 3 3 4 4 2 2 5 3 4 7 3 3 1
23 24 25 27 29 31 32 33 36 38 40 34 10 7 5 5 5 6 5 2 3 4 5 6 3 4 5 10 6 5 4 3 3 1 3 4 4 2 3 3 9 4 3 2 1 4 5
25 25 25 26 28 30 31 32 33 36 39 30 5 3 8 3 5 5 3 4 5 5 5 3 6 8 9 7 4 4 6 7 2 2 0 1 1 5 4 4 6 3 3 2 3 5 3
25 25 26 27 27 29 31 32 31 35 38 21 6 2 10 3 4 1 1 4 5 7 2 5 4 5 5 3 5 4 6 3 2 1 5 2 1 3 7 6 4 3 3 5 4 6 4
25 25 25 25 26 26 28 30 31 32 32 8 3 3 4 3 2 3 5 5 4 4 7 3 4 4 1 3 5 5 5 6 1 4 4 1 1 3 4 2 3 0 4 4 2 2 6
25 26 26 25 24 24 26 27 29 30 30 4 3 4 4 4 1 3 5 5 4 5 6 3 5 4 3 7 8 6 6 6 1 5 8 2 2 5 4 2 1 3 7 8 3 5 5
25 25 25 26 25 24 24 24 25 28 27 5 3 1 1 4 3 5 4 5 9 6 3 1 4 4 8 7 13 14 11 7 8 6 0 4 6 5 8 8 9 10 14 13 15 10 7
25 24 23 24 27 25 23 22 21 22 23 4 2 3 3 4 5 4 4 4 7 6 5 11 7 15 14 13 14 21 18 14 11 4 5 6 4 2 8 10 11 13 15 17 18 18 15
25 24 25 24 24 25 22 20 19 17 15 4 3 2 2 4 4 2 4 4 9 15 8 9 14 17 15 16 12 19 20 22 15 7 7 5 4 3 4 4 5 9 15 18 16 13 12
25 25 25 25 25 25 21 19 16 14 10 4 2 1 1 4 3 4 7 13 17 10 14 16 14 9 9 15 17 14 13 15 15 16 11 5 5 4 4 2 4 6 9 7 15 16 18
24 25 25 26 25 24 21 18 15 14 10 9 4 3 2 4 5 11 7 6 10 10 14 13 15 12 7 6 5 6 3 3 3 3 13 15 6 3 3 4 9 11 1 4 4 7 11
24 25 26 24 23 22 21 19 17 15 12 10 12 9 3 3 4 4 9 8 6 6 5 8 11 5 5 3 3 4 3 4 3 4 4 10 11 7 3 3 4 1 2 8 4 7 4
27 27 24 22 23 21 21 20 18 16 14 12 8 13 4 3 5 4 6 4 4 4 4 6 7 6 3 4 3 2 4 6 4 5 3 1 4 12 8 5 6 1 3 7 6 3 7
28 26 24 23 23 21 21 19 18 16 14 12 10 12 10 3 7 9 4 6 5 3 3 4 6 3 4 5 3 3 2 3 4 3 3 2 2 3 4 5 8 10 9 7 3 7 8
26 26 25 24 23 22 20 20 18 16 13 12 9 11 18 6 7 26 33 38 30 25 5 3 2 3 2 2 2 3 3 3 5 4 1 2 2 2 3 2 6 14 14 17 16 13 7
Wind_Direction
22 19 15 13 9 7 6 3 359 357 355 353 351 347 344 341 338 334 330 325 324 324 317 314 316 329 5 357 255 310 319 323 343 0 279 200 214 214 198 204 204 235 215 210 227 225 242
19 15 11 9 6 4 2 360 356 354 352 349 348 346 344 342 340 337 335 335 340 336 322 312 312 321 38 279 284 319 315 315 311 316 316 227 238 220 273 209 204 81 213 238 238 241 228
13 10 7 1 2 359 358 357 354 351 348 345 344 343 344 343 340 341 340 342 345 347 342 327 272 167 229 243 290 314 314 302 304 283 254 241 255 240 206 288 247 265 279 265 221 203 235
8 4 3 2 358 357 355 352 349 347 345 342 341 343 343 342 341 342 344 341 343 349 354 1 132 163 250 291 311 303 335 317 343 327 240 249 248 267 183 283 317 190 174 237 232 186 221
6 3 2 359 356 353 353 349 346 345 343 340 339 341 344 343 342 342 345 344 344 338 333 15 106 130 273 309 287 309 296 294 320 331 261 252 173 205 148 200 349 251 235 214 249 206 182
5 2 0 357 355 353 351 348 346 344 342 339 339 342 346 343 343 342 349 345 335 357 351 347 200 270 277 310 298 295 295 270 223 309 303 204 226 184 169 169 215 202 170 159 190 200 198
7 4 1 357 356 353 354 351 347 343 340 337 338 340 342 341 343 343 356 1 9 349 2 262 271 258 278 279 301 288 297 209 75 358 280 238 196 215 214 234 254 44 97 63 343 232 353
12 9 6 1 359 360 358 355 350 345 340 338 342 336 334 339 340 338 3 47 120 296 299 296 251 248 262 265 294 305 23 202 121 264 319 326 236 246 114 195 241 271 235 237 276 267 231
15 11 8 4 360 357 353 352 352 347 342 340 346 338 334 337 342 12 343 304 330 338 238 294 245 262 269 256 275 289 4 354 106 216 242 208 266 221 175 211 197 189 201 187 222 291 285
13 11 9 7 4 360 355 351 350 349 346 345 344 335 334 337 57 332 290 330 328 236 41 288 325 308 351 293 312 203 175 171 90 260 234 207 264 192 190 223 224 238 180 270 329 171 257
11 10 9 7 5 3 1 356 352 351 350 347 340 330 326 326 295 292 308 321 328 142 348 319 328 323 325 315 300 253 339 234 214 226 307 247 225 247 222 206 177 236 177 207 221 257 283
7 7 7 5 4 2 2 360 356 352 351 350 338 327 314 285 262 295 312 328 120 48 281 329 329 327 343 303 323 299 274 56 297 243 222 249 266 201 230 261 207 202 183 157 82 137 250
6 5 4 3 2 2 1 360 356 353 352 349 345 332 248 207 269 316 329 53 42 100 325 324 320 325 320 298 320 334 331 333 46 314 32 256 238 239 242 280 244 184 115 122 107 197 230
7 8 6 4 2 0 360 359 356 353 354 350 351 1 303 261 303 318 354 53 75 251 266 293 307 312 296 4 309 313 320 347 292 288 140 276 282 175 221 188 195 191 167 168 174 192 213
5 5 4 2 1 2 1 359 357 353 353 351 355 1 29 351 341 341 61 51 194 218 248 302 315 291 288 317 282 333 295 279 326 4 302 204 269 321 3 198 154 178 177 210 356 289 89
0 358 358 358 358 358 359 0 358 354 351 354 352 340 14 342 353 13 66 275 231 218 294 296 265 239 293 316 328 353 291 243 326 223 144 312 305 199 148 224 232 175 198 132 308 208 234
359 358 356 355 354 354 354 358 359 357 351 355 12 39 3 358 332 44 114 249 279 254 298 277 257 274 285 299 277 283 273 306 52 315 204 326 75 304 338 211 193 170 261 230 187 182 209
355 354 354 354 352 351 352 353 358 359 354 3 355 40 9 354 43 70 19 294 282 275 310 280 251 257 250 312 276 263 241 230 163 353 315 19 150 264 246 264 5 351 269 201 192 251 258
349 350 348 347 348 349 351 352 354 359 0 343 1 290 2 11 75 323 304 284 268 297 306 325 285 251 264 256 283 258 290 304 247 180 220 186 276 312 304 10 40 309 290 234 206 126 222
342 345 347 345 346 347 349 351 353 354 357 7 7 358 329 38 49 105 319 290 281 258 278 327 265 263 344 285 241 278 276 296 286 218 250 178 214 219 229 275 114 293 293 296 241 230 245
336 339 340 344 345 343 345 351 351 352 356 354 26 323 202 304 317 315 255 267 287 315 237 269 281 260 305 294 298 266 258 266 261 270 342 176 224 231 254 279 284 263 267 268 268 257 251
334 336 338 338 340 343 342 348 347 352 357 49 45 27 354 287 281 265 261 255 295 310 306 307 260 301 298 289 279 290 281 266 267 246 180 189 234 206 289 273 253 264 260 257 253 255 256
335 336 337 336 334 338 339 344 344 349 6 24 359 353 129 271 293 334 250 259 294 316 289 258 295 298 295 290 286 276 268 264 249 219 205 192 192 150 252 245 322 277 251 255 247 228 219
333 334 334 333 331 331 334 336 338 341 338 343 258 216 264 274 260 237 290 288 287 286 282 295 289 276 266 310 298 272 256 247 246 239 203 182 171 176 250 326 248 245 313 286 249 222 215
329 332 331 332 329 330 332 332 331 328 327 263 232 191 252 272 243 295 296 279 294 283 281 273 282 276 330 319 316 321 341 245 214 235 213 207 171 204 214 200 287 295 87 4 332 263 217
326 326 327 329 331 331 334 333 328 321 316 307 251 214 194 282 244 267 304 284 284 298 295 298 306 298 8 14 332 314 315 293 320 317 70 207 205 198 174 239 252 183 83 7 327 269 178
320 322 327 329 328 328 331 330 331 322 313 305 284 220 206 254 257 192 281 266 300 286 280 298 335 335 27 354 340 319 295 330 312 312 339 177 179 214 211 243 281 110 8 3 218 252 309
319 322 326 325 325 322 322 320 324 325 317 310 286 252 210 243 272 253 234 229 272 214 258 313 330 340 347 359 338 325 292 312 289 284 340 307 274 186 205 218 250 17 326 200 353 315 305
322 323 322 320 319 321 319 315 311 317 313 308 285 262 243 234 264 283 272 266 250 247 308 274 270 281 227 322 325 300 297 286 302 327 283 316 257 294 234 278 314 280 235 263 277 274 304